Regional Weather Roundup
Issued by NWS

Home | Current Version | Previous Version | Graphics & Text | Print | Product List | Glossary Off
Versions: 1 2 3 4 5 6 7 8 9 10 11 12 13 14 15 16 17 18 19 20 21 22 23 24 25 26 27 28 29 30 31 32 33 34 35 36 37 38 39 40 41 42 43 44 45 46 47 48 49 50

055
ASUS43 KDTX 231810
RWRMI
MICHIGAN HOURLY REGIONAL WEATHER ROUNDUP
NATIONAL WEATHER SERVICE DETROIT/PONTIAC MI
100 PM EST THU NOV 23 2017

NOTE: "FAIR" INDICATES FEW OR NO CLOUDS BELOW 12,000 FEET WITH NO
SIGNIFICANT WEATHER AND/OR OBSTRUCTION TO VISIBILITY.

MIZ047>049-052>055-059>063-066>070-074>076-081>083-231900-
SOUTHEAST LOWER MICHIGAN

CITY           SKY/WX    TMP DP  RH WIND       PRES   REMARKS
ADRIAN         CLOUDY    34  25  69 SW16      30.01F WCI  24
6HR MIN TEMP:  26; 6HR MAX TEMP:  34;

ALMA           CLOUDY    37  26  64 S12       29.94F WCI  29
ANN ARBOR      CLOUDY    35  26  69 S10       29.99F WCI  27
BAD AXE        CLOUDY    33  24  67 SW9       29.94F WCI  26
6HR MIN TEMP:  30; 6HR MAX TEMP:  33;

CARO           CLOUDY    35  24  64 SW10      29.94F WCI  27
DETROIT CITY   CLOUDY    35  24  64 SW16      30.00F WCI  25
6HR MIN TEMP:  30; 6HR MAX TEMP:  35;

DETROIT        CLOUDY    36  25  64 SW16      30.01F WCI  26
6HR MIN TEMP:  26; 6HR MAX TEMP:  36;

FLINT          CLOUDY    34  21  59 S13       29.97F WCI  25
6HR MIN TEMP:  30; 6HR MAX TEMP:  35;

GROSSE ILE     CLOUDY    36  25  65 SW9       30.01F WCI  29
6HR MIN TEMP:  30; 6HR MAX TEMP:  36;

HILLSDALE      CLOUDY    36  23  60 S10       29.96F WCI  28
HOWELL         CLOUDY    36  23  61 SW9       29.97F WCI  29
6HR MIN TEMP:  28; 6HR MAX TEMP:  36;


CITY           SKY/WX    TMP DP  RH WIND       PRES   REMARKS
JACKSON        SUNNY     38  20  48 S12       29.97F WCI  30
6HR MIN TEMP:  30; 6HR MAX TEMP:  38;

LAMBERTVILLE   CLOUDY    39  25  57 SW6       30.03F WCI  34
6HR MIN TEMP:  31; 6HR MAX TEMP:  39;

LANSING        PTSUNNY   39  21  48 SW13      29.97F WCI  31
6HR MIN TEMP:  30; 6HR MAX TEMP:  40;

LAPEER         CLOUDY    35  23  62 SW12      29.96F WCI  27
6HR MIN TEMP:  30; 6HR MAX TEMP:  35;

MASON          MOSUNNY   39  20  46 SW5       29.97S
MONROE         CLOUDY    38  24  58 SW12      30.01F WCI  30
MT. CLEMENS    CLOUDY    35  24  66 SW13      29.98F WCI  26
6HR MIN TEMP:  29; 6HR MAX TEMP:  35;

PONTIAC        CLOUDY    32  23  69 S9        29.96F WCI  24
6HR MIN TEMP:  27; 6HR MAX TEMP:  32;

PORT HOPE        N/A     34  24  67 VRB6      29.91F WCI  29
6HR MIN TEMP:  31; 6HR MAX TEMP:  34;

PORT HURON     CLOUDY    34  21  60 S9        29.98F WCI  26
TRI CITIES     CLOUDY    38  26  62 SW14      29.94F WCI  30
6HR MIN TEMP:  32; 6HR MAX TEMP:  38;

MIDLAND        CLOUDY    38  26  61 SW15      29.92F WCI  30
6HR MIN TEMP:  32; 6HR MAX TEMP:  39;

TROY           CLOUDY    36  24  62 SW9       30.01F WCI  29
SAGINAW HB     CLOUDY    36  27  69 S13       29.95S WCI  27
$$
MIZ043>046-050>051-056>058-064>065-071>073-077>080-231900-
SOUTHWEST LOWER MICHIGAN

CITY           SKY/WX    TMP DP  RH WIND       PRES   REMARKS
BATTLE CREEK   MOSUNNY   38  21  50 SW9       29.98F WCI  31
6HR MIN TEMP:  30; 6HR MAX TEMP:  39;

BENTON HARBOR  SUNNY     42  21  43 S12       29.97F
6HR MIN TEMP:  32; 6HR MAX TEMP:  42;

BIG RAPIDS     CLOUDY    40  25  55 W13G22    29.89F WCI  32
6HR MIN TEMP:  31; 6HR MAX TEMP:  40;

COLDWATER      CLOUDY    38  20  47 SW10      29.98F WCI  31
6HR MIN TEMP:  30; 6HR MAX TEMP:  38;

FREMONT        CLOUDY    41  28  58 W12G18    29.92S
HOLLAND        MOSUNNY   42  30  62 SW14      29.96F
6HR MIN TEMP:  33; 6HR MAX TEMP:  42;

GRAND RAPIDS   MOSUNNY   40  28  62 SW13      29.95F WCI  32
6HR MIN TEMP:  32; 6HR MAX TEMP:  40;

IONIA          FAIR      41  25  51 SW16G22   29.94F
6HR MIN TEMP:  32; 6HR MAX TEMP:  41;

KALAMAZOO      MOSUNNY   40  19  43 S10       29.98F WCI  33
6HR MIN TEMP:  31; 6HR MAX TEMP:  40;

LUDINGTON      CLOUDY    39  26  59 SW8       29.91F WCI  33
6HR MIN TEMP:  36; 6HR MAX TEMP:  39;

MARSHALL       SUNNY     37  19  47 SW10      29.97F WCI  30
6HR MIN TEMP:  30; 6HR MAX TEMP:  38;

MOUNT PLEASANT CLOUDY    38  25  59 SW9       29.92F WCI  31
6HR MIN TEMP:  33; 6HR MAX TEMP:  38;

MUSKEGON       PTSUNNY   43  27  53 SW16      29.94F
6HR MIN TEMP:  37; 6HR MAX TEMP:  45;

SOUTH HAVEN    SUNNY     42  22  45 SW10      29.96F
$$
MIZ016>042-231900-
NORTHERN LOWER MICHIGAN

CITY           SKY/WX    TMP DP  RH WIND       PRES   REMARKS
ALPENA         CLOUDY    37  27  67 SW10      29.86F WCI  30
6HR MIN TEMP:  30; 6HR MAX TEMP:  37; 6HR PCP: TRACE;

BEAVER ISLAND  CLOUDY    37  28  69 W16       29.84F WCI  28
6HR MIN TEMP:  33; 6HR MAX TEMP:  37;

BELLAIRE       CLOUDY    37  29  72 SW9       29.88F WCI  31
6HR MIN TEMP:  32; 6HR MAX TEMP:  37;

CADILLAC       SUNNY     39  26  58 SW16      29.86F WCI  30
CHARLEVOIX     CLOUDY    37  28  69 SW12G22   29.89S WCI  30
6HR MIN TEMP:  33; 6HR MAX TEMP:  37;

FRANKFORT      CLOUDY    40  26  55 SW9G16    29.89F WCI  34
GAYLORD        CLOUDY    33  24  69 W18G26    29.84F WCI  22
6HR MIN TEMP:  27; 6HR MAX TEMP:  33; 6HR PCP: TRACE;

GRAYLING       CLOUDY    37  25  61 SW9       29.85F WCI  30
6HR MIN TEMP:  29; 6HR MAX TEMP:  37;

HARBOR SPRINGS CLOUDY    36  30  80 SW13G20   29.84F WCI  27
HOUGHTON LAKE  CLOUDY    37  25  61 SW10      29.87F WCI  30
6HR MIN TEMP:  29; 6HR MAX TEMP:  37;

MANISTEE       SUNNY     40  25  55 SW12G20   29.90F WCI  33
OSCODA         CLOUDY    36  23  59 SW10G16   29.88F WCI  28
6HR MIN TEMP:  31; 6HR MAX TEMP:  36;

PELLSTON       CLOUDY    37  28  70 W9G18     29.85F WCI  30
6HR MIN TEMP:  34; 6HR MAX TEMP:  37; 6HR PCP: TRACE;

ROGERS CITY    CLOUDY    37  27  66 W10G17    29.85F WCI  30
TRAVERSE CITY  PTSUNNY   41  24  51 W15       29.87F
6HR MIN TEMP:  32; 6HR MAX TEMP:  41;

$$
MIZ007>008-015-231900-
EASTERN UPPER MICHIGAN

CITY           SKY/WX    TMP DP  RH WIND       PRES   REMARKS
KINROSS        CLOUDY    33  23  66 W10       29.81F WCI  25
6HR MIN TEMP:  26; 6HR MAX TEMP:  33;

MACKINAC ISLAN CLOUDY    37  27  65 W16G26    29.82F WCI  28
6HR MIN TEMP:  33; 6HR MAX TEMP:  37;

NEWBERRY       CLOUDY    30  22  72 SW12      29.81F WCI  21
6HR MIN TEMP:  25; 6HR MAX TEMP:  30;

S. S. MARIE    CLOUDY    32  23  69 W9        29.80F WCI  24
6HR MIN TEMP:  28; 6HR MAX TEMP:  32; 6HR PCP: TRACE;

MUNISING         N/A     36  24  62 VRB5      29.84F WCI  32
6HR MIN TEMP:  28; 6HR MAX TEMP:  36;

$$
MIZ004>006-011>014-085-231900-
CENTRAL UPPER MICHIGAN

CITY           SKY/WX    TMP DP  RH WIND       PRES   REMARKS
MANISTIQUE     CLOUDY    35  13  40 SW3       29.83F
6HR MIN TEMP:  28; 6HR MAX TEMP:  36;

ESCANABA       SUNNY     37  21  52 W12       29.85F WCI  29
6HR MIN TEMP:  28; 6HR MAX TEMP:  37;

MENOMINEE      SUNNY     37  19  48 W6        29.88F WCI  32
6HR MIN TEMP:  29; 6HR MAX TEMP:  38;

SAWYER-GWINN   SUNNY     34  21  60 W12G17    29.81F WCI  25
$$
MIZ001>003-009>011-084-231900-
WESTERN UPPER MICHIGAN

CITY           SKY/WX    TMP DP  RH WIND       PRES   REMARKS
IRON MOUNTAIN  SUNNY     37  19  48 NW10      29.82F WCI  30
6HR MIN TEMP:  26; 6HR MAX TEMP:  38;

HOUGHTON       CLOUDY    32  26  78 W13       29.79F WCI  22
6HR MIN TEMP:  28; 6HR MAX TEMP:  32;

COPPER HARBOR    N/A     34  25  69 NW16G24   29.80F WCI  24
6HR MIN TEMP:  30; 6HR MAX TEMP:  35;

$$

ABBREVIATIONS USED IN REMARKS
   TC - TEMPERATURE IN CELSIUS
  WCI - WIND CHILL INDEX
   HX - HEAT INDEX
  VSB - VISIBILITY





USA.gov is the U.S. government's official web portal to all federal, state and local government web resources and services.